CST,Max TemperatureF,Mean TemperatureF,Min TemperatureF,Max Dew PointF,MeanDew PointF,Min DewpointF,Max Humidity, Mean Humidity, Min Humidity, Max Sea Level PressureIn, Mean Sea Level PressureIn, Min Sea Level PressureIn, Max VisibilityMiles, Mean VisibilityMiles, Min VisibilityMiles, Max Wind SpeedMPH, Mean Wind SpeedMPH, Max Gust SpeedMPH,PrecipitationIn, CloudCover, Events, WindDirDegrees
2013-1-1,24,17,8,19,13,7,100,89,80,30.24,30.15,30.00,10,8,1,15,5,18,0.00,5,,146
2013-1-2,33,20,8,28,23,3,100,87,75,30.21,30.05,29.97,10,9,1,18,9,21,0.00,7,,280
2013-1-3,28,19,10,25,14,7,92,80,64,30.37,30.29,30.19,10,10,9,26,12,31,0.00,4,,258
2013-1-4,32,20,8,19,13,1,100,76,51,30.18,30.12,30.04,10,10,5,8,3,,0.00,0,,215
2013-1-5,33,18,3,25,13,0,100,84,64,30.21,30.04,29.96,10,8,2,30,9,39,0.00,3,,286
2013-1-6,32,20,8,23,16,7,100,81,64,30.25,30.15,29.93,10,10,7,14,7,22,0.00,0,,172
2013-1-7,37,28,19,27,23,18,100,79,64,29.99,29.95,29.89,10,9,1,20,8,30,0.00,0,,250
2013-1-8,39,27,15,32,23,12,100,85,65,30.09,29.87,29.74,10,7,0,18,6,23,0.00,0,,202
2013-1-9,42,33,24,30,27,16,93,73,57,30.35,30.23,30.09,10,10,10,20,12,26,0.00,0,,194
2013-1-10,39,34,28,36,30,25,100,83,61,30.21,29.92,29.59,10,9,3,16,11,23,0.04,4,,138
2013-1-11,37,27,17,37,31,12,100,92,79,29.68,29.48,29.35,10,8,2,28,12,36,0.00,8,,214
2013-1-12,17,12,6,16,6,0,93,75,57,30.15,29.99,29.69,10,9,2,33,21,41,0.00,4,,289
2013-1-13,17,11,5,9,3,-2,100,72,53,30.27,30.19,30.11,10,10,10,20,12,22,0.00,2,,284
2013-1-14,28,17,6,12,8,1,92,70,43,30.40,30.30,30.26,10,10,10,12,7,,0.00,0,,225
2013-1-15,33,22,12,16,9,5,93,59,32,30.25,30.11,29.89,10,10,10,16,8,22,0.01,0,,207
2013-1-16,48,34,21,30,27,14,87,70,46,30.27,29.97,29.81,10,10,10,25,14,33,0.00,4,,283
2013-1-17,39,30,21,30,24,16,100,84,65,30.41,30.31,30.14,10,9,2,13,4,,0.00,4,,112
2013-1-18,57,44,32,30,26,25,81,57,31,30.12,29.91,29.81,10,10,10,15,9,20,0.00,0,,231
2013-1-19,46,28,10,30,22,1,80,60,43,30.37,30.03,29.79,10,10,10,31,14,41,0.00,1,,294
2013-1-20,14,8,1,9,3,-6,85,75,62,30.44,30.38,30.33,10,9,1,17,8,21,0.00,3,,319
2013-1-21,6,3,0,3,-5,-9,85,67,56,30.43,30.38,30.32,10,10,10,23,13,28,0.00,1,,299
2013-1-22,17,12,6,10,4,-4,92,76,57,30.33,30.26,30.15,10,10,10,10,5,,0.00,4,,140
2013-1-23,19,11,1,12,6,-6,100,78,58,30.53,30.31,30.11,10,10,10,22,9,25,0.00,0,,339
2013-1-24,17,6,-2,7,-2,-9,85,69,57,30.56,30.33,30.09,10,10,10,22,11,26,0.00,1,,119
2013-1-25,35,24,10,23,16,5,100,74,56,30.25,30.15,30.05,10,10,10,17,9,18,0.00,0,,308
2013-1-26,46,27,8,30,16,3,85,72,53,30.25,30.06,29.91,10,10,10,17,10,23,0.00,1,,111
2013-1-27,35,34,33,36,32,27,100,89,70,29.91,29.77,29.69,10,4,0,13,8,,0.01,6,,117
2013-1-28,35,32,30,36,33,28,100,98,93,29.82,29.74,29.61,5,1,0,16,4,23,0.00,8,,326
2013-1-29,35,29,23,30,27,19,100,87,75,29.82,29.71,29.63,10,7,2,29,15,32,0.00,5,,319
2013-1-30,23,13,3,19,9,-2,86,76,68,29.94,29.86,29.79,10,9,3,29,22,36,0.00,5,,310
2013-1-31,3,0,-4,-4,-9,-11,85,68,56,30.36,30.21,29.95,10,9,2,30,17,40,0.00,1,,296